THOR AGENA D R/B

Last updated on Wed Nov 05 2025 00:02:13 GMT+0000 (Coordinated Universal Time)

1 00733U 64002A 25308.48441693 .00000309 00000+0 12769-3 0 9991 2 00733 99.1224 310.0328 0031918 262.9284 96.8269 14.33925769220355
UTC large
Height (km)
Speed (km/s)
/
Latitude / Longitude
Inclination (degrees)
Orbital Period (minutes)
Azimuth
Elevation
Range (km)
Doppler Factor

Next 0 passes for location: London (51.5072 / 0.1276)

Sorry there are no passes over London.